IRIDIUM 33 DEB

基本信息
目录编号:
34896
目录名称:
IRIDIUM 33 DEB
国际标识:
1997-051MY
轨道中心:
EARTH
物体状态:
在轨
发射日期:
1997-09-14 UTC
轨道信息
数据来源: 国际轨道数据
星历时间: 2026-09-12T22:49:13+0800
半长轴: 7043.727km
偏心率: 0.0025982
轨道倾角: 86.332°
近地点辐角: 4.402°
升交点赤经: 203.591°
平近点角: 119.357°
近地点: 647.288km
远地点: 683.892km
周期: 98.054分钟
每日圈数: 14.685848
详细信息
发射场:
TTMTR
轨道高度:
LEO
数据来源:
AOE Integration Group
参考系:
TEME
时间系统:
UTC
历元类型:
SGP4
2D轨道图
3D轨道图
轨道高度分析图
轨道倾角分析图
轨道综合分析图
查看轨道综合分析图